[Iaude] MPEC S253: 2023 SV7 [a=1.09,e=0.09,i=1.7,H=28.7]
    mpec at marsden.cfa.harvard.edu 
    mpec at marsden.cfa.harvard.edu
       
    Thu Sep 28 07:13:54 EDT 2023
    
    
  
M.P.E.C. 2023-S253                           Issued 2023 September 28, 11:12 UT
     The Minor Planet Electronic Circulars contain information on unusual
         minor planets, routine data on comets and natural satellites,
         and occasional editorial announcements.  They are published
    on behalf of Division F of the International Astronomical Union by the
          Minor Planet Center, Smithsonian Astrophysical Observatory,
                          Cambridge, MA 02138, U.S.A.
			  
             Prepared using the Tamkin Foundation Computer Network
                              MPC at CFA.HARVARD.EDU
            URL https://www.minorplanetcenter.net/    ISSN 1523-6714
                                    2023 SV7                                    
Observations:
     K23S07V KC2023 09 26.35377400 32 36.425+17 28 53.67         20.92GVES253F52
     K23S07V*1C2023 09 26.41806900 32 25.422+17 19 22.22         20.70GVES253G96
     K23S07V 1C2023 09 26.42375600 32 26.567+17 18 37.69         20.61GVES253G96
     K23S07V 1C2023 09 26.42942900 32 27.654+17 17 53.34         20.50GVES253G96
     K23S07V 1C2023 09 26.43511000 32 28.799+17 17 09.06         20.57GVES253G96
     K23S07V 2C2023 09 26.55456900 33 06.371+17 04 11.95         21.2 GWES253T12
     K23S07V 2C2023 09 26.55739500 33 06.886+17 03 49.82         21.3 GWES253T12
     K23S07V 2C2023 09 26.55905400 33 07.193+17 03 36.84         21.3 GWES253T12
     K23S07V KC2023 09 28.30988200 41 50.365+13 48 10.93         20.8 GVES253H01
     K23S07V KC2023 09 28.31369900 41 50.797+13 47 47.57         20.8 GVES253H01
     K23S07V KC2023 09 28.32322700 41 51.819+13 46 49.43         20.9 GVES253H01
     K23S07V KC2023 09 28.33018300 41 52.568+13 46 06.97         20.9 GVES253H01
Observer details:
F52 Pan-STARRS 2, Haleakala.  Observers J. Bulger, K. Chambers, T. Dukes, T.
    Lowe, P. Minguez, A. Schultz, I. Smith.  Measurers S. Chastel, J.
    Fairlamb, M. Huber, Y. Ramanjooloo, R. Wainscoat, R. Weryk.  1.8-m
    Ritchey-Chretien + CCD.
G96 Mt. Lemmon Survey.  Observer R. A. Kowalski.  Measurers E. J. Christensen,
    D. Fay, J. B. Fazekas, D. C. Fuls, A. R. Gibbs, A. D. Grauer, H. Groeller,
    J. K. Hogan, R. A. Kowalski, S. M. Larson, G. J. Leonard, D. Rankin, R. L.
    Seaman, A. Serrano, F. C. Shelly, K. W. Wierzchos.  1.5-m reflector + 10K
    CCD.
H01 Magdalena Ridge Observatory, Socorro.  Observers W. H. Ryan, E. V. Ryan.
    Measurer W. H. Ryan.  2.4-m f/8.9 Ritchey-Chretien + CCD.
T12 University of Hawaii 88-inch telescope, Maunakea.  Observer J. Fairlamb.
    Measurers Y. Ramanjooloo, R. Wainscoat.  2.24-m University of Hawaii
    reflector + CCD.
Orbital elements:
2023 SV7                                                 Earth MOID = 0.0114 AU
Epoch 2023 Sept. 13.0 TT = JDT 2460200.5                Veres                   
M  27.12779              (2000.0)            P               Q                  
n   0.86509191     Peri.  125.65595     +0.73748364     +0.67533836             
a   1.0908404      Node   191.86758     -0.62868164     +0.68323429             
e   0.0857679      Incl.    1.67158     -0.24673323     +0.27768508             
P   1.14           H   28.74          G   0.15           U   7                  
Residuals in seconds of arc
230926 F52  0.0   0.0     230926 G96  0.1-  0.3+    230928 H01  0.1-  0.1+
230926 G96  0.2-  0.1-    230926 T12  0.1+  0.1-    230928 H01  0.1+  0.1-
230926 G96  0.4+  0.1-    230926 T12  0.1+  0.2-    230928 H01  0.0   0.1-
230926 G96  0.1-  0.0     230926 T12  0.1+  0.2-    230928 H01  0.1-  0.1+
Ephemeris:
2023 SV7                 a,e,i = 1.09, 0.09, 2                   q = 0.9973
Date    TT    R. A. (2000) Decl.     Delta      r    Elong.  Phase     V
2023 08 29    14 56 40.2 +33 09 12   0.02352 1.0007    65.7   113.0    25.0
...
2023 09 13    19 48 27.2 +57 58 21   0.01156 1.0095   104.8    74.6    21.7
...
2023 09 21    23 46 43.4 +32 10 54   0.01403 1.0160   146.8    32.8    20.9
...
2023 09 27    00 35 44.9 +16 12 23   0.01981 1.0216   164.0    15.7    21.1
2023 09 28    00 40 29.4 +14 22 27   0.02094 1.0226   165.9    13.8    21.2
2023 09 29    00 44 39.6 +12 43 09   0.02210 1.0236   167.7    12.1    21.2
...
2023 10 05    01 01 30.5 +05 31 58   0.02968 1.0298   174.8     5.1    21.6
...
2023 10 13    01 12 19.9 +00 19 01   0.04119 1.0389   172.8     6.9    22.4
...
2023 10 28    01 22 06.1 -03 10 02   0.06746 1.0576   160.5    18.3    24.0
M. P. C. Staff               (C) Copyright 2023 MPC           M.P.E.C. 2023-S253
    
    
More information about the Iaude
mailing list